Time,TemperatureF,DewpointF,PressureIn,WindDirection,WindDirectionDegrees,WindSpeedMPH,WindSpeedGustMPH,Humidity,HourlyPrecipIn,Conditions,Clouds,dailyrainin,SoftwareType,DateUTC
2013-07-07 00:01:00,73.9,70.6,30.05,SW,226,1.0,5.0,89,0.00,,OVC OVC///CB,0.02,WUHU216DAVISVP2,2013-07-07 04:01:00,
2013-07-07 00:02:00,73.9,70.6,30.05,SW,234,2.0,5.0,89,0.00,,OVC OVC///CB,0.02,WUHU216DAVISVP2,2013-07-07 04:02:00,
2013-07-07 00:07:00,73.9,70.6,30.06,WSW,240,2.0,6.0,89,0.00,,OVC OVC///CB,0.00,WUHU216DAVISVP2,2013-07-07 04:07:00,
2013-07-07 00:12:00,73.9,70.6,30.06,SW,235,0.0,6.0,89,0.00,,OVC OVC///CB,0.00,WUHU216DAVISVP2,2013-07-07 04:12:00,
2013-07-07 00:17:00,73.8,70.5,30.06,SW,226,3.0,6.0,89,0.00,,OVC OVC///CB,0.00,WUHU216DAVISVP2,2013-07-07 04:17:00,
2013-07-07 00:22:00,73.6,70.6,30.05,SW,217,2.0,6.0,90,0.00,,OVC OVC///CB,0.00,WUHU216DAVISVP2,2013-07-07 04:22:00,
2013-07-07 00:27:00,73.5,70.5,30.06,SW,235,0.0,5.0,90,0.00,,OVC OVC///CB,0.00,WUHU216DAVISVP2,2013-07-07 04:27:00,
2013-07-07 00:32:00,73.5,70.2,30.06,SW,217,1.0,6.0,89,0.00,,OVC OVC///CB,0.00,WUHU216DAVISVP2,2013-07-07 04:32:00,
2013-07-07 00:37:00,73.3,70.3,30.06,SW,236,1.0,6.0,90,0.00,,OVC OVC///CB,0.00,WUHU216DAVISVP2,2013-07-07 04:37:00,
2013-07-07 00:42:00,73.3,70.3,30.06,SW,229,0.0,6.0,90,0.00,,OVC OVC///CB,0.00,WUHU216DAVISVP2,2013-07-07 04:42:00,
2013-07-07 00:47:00,73.2,70.2,30.06,SW,228,3.0,6.0,90,0.00,,OVC OVC///CB,0.00,WUHU216DAVISVP2,2013-07-07 04:47:00,
2013-07-07 00:52:00,73.1,70.1,30.06,SW,228,0.0,5.0,90,0.00,,OVC OVC///CB,0.00,WUHU216DAVISVP2,2013-07-07 04:52:00,
2013-07-07 00:57:00,72.9,69.9,30.06,SSW,203,1.0,5.0,90,0.00,,OVC OVC///CB,0.00,WUHU216DAVISVP2,2013-07-07 04:57:00,
2013-07-07 01:02:00,72.7,69.7,30.06,WSW,238,0.0,4.0,90,0.00,,OVC OVC///CB,0.00,WUHU216DAVISVP2,2013-07-07 05:02:00,
2013-07-07 01:07:00,72.6,69.6,30.06,WSW,246,1.0,7.0,90,0.00,,OVC OVC///CB,0.00,WUHU216DAVISVP2,2013-07-07 05:07:00,
2013-07-07 01:12:00,72.5,69.5,30.05,WSW,245,0.0,7.0,90,0.00,,OVC OVC///CB,0.00,WUHU216DAVISVP2,2013-07-07 05:12:00,
2013-07-07 01:17:00,72.3,69.3,30.06,WNW,283,1.0,6.0,90,0.00,,OVC OVC///CB,0.00,WUHU216DAVISVP2,2013-07-07 05:17:00,
2013-07-07 01:22:00,72.3,69.3,30.06,WSW,255,1.0,6.0,90,0.00,,OVC OVC///CB,0.00,WUHU216DAVISVP2,2013-07-07 05:22:00,
2013-07-07 01:27:00,72.2,69.2,30.06,SW,229,0.0,6.0,90,0.00,,OVC OVC///CB,0.00,WUHU216DAVISVP2,2013-07-07 05:27:00,
2013-07-07 01:32:00,72.1,69.1,30.06,SW,235,3.0,6.0,90,0.00,,OVC OVC///CB,0.00,WUHU216DAVISVP2,2013-07-07 05:32:00,
2013-07-07 01:37:00,72.0,69.0,30.05,SW,235,1.0,6.0,90,0.00,,OVC OVC///CB,0.00,WUHU216DAVISVP2,2013-07-07 05:37:00,
2013-07-07 01:42:00,71.8,69.1,30.05,West,281,1.0,6.0,91,0.00,,OVC OVC///CB,0.00,WUHU216DAVISVP2,2013-07-07 05:42:00,
2013-07-07 01:47:00,71.7,68.7,30.05,SW,233,1.0,5.0,90,0.00,,OVC OVC///CB,0.00,WUHU216DAVISVP2,2013-07-07 05:47:00,
2013-07-07 01:52:00,71.6,68.6,30.05,SSW,193,0.0,7.0,90,0.00,,OVC OVC///CB,0.00,WUHU216DAVISVP2,2013-07-07 05:52:00,
2013-07-07 01:57:00,71.5,68.5,30.05,SW,222,2.0,7.0,90,0.00,,OVC OVC///CB,0.00,WUHU216DAVISVP2,2013-07-07 05:57:00,
2013-07-07 02:02:00,71.4,68.4,30.04,SSW,201,0.0,6.0,90,0.00,,OVC OVC///CB,0.00,WUHU216DAVISVP2,2013-07-07 06:02:00,
2013-07-07 02:07:00,71.2,68.2,30.05,SSW,210,2.0,6.0,90,0.00,,OVC OVC///CB,0.00,WUHU216DAVISVP2,2013-07-07 06:07:00,
2013-07-07 02:12:00,71.1,68.1,30.04,SSW,207,1.0,5.0,90,0.00,,OVC OVC///CB,0.00,WUHU216DAVISVP2,2013-07-07 06:12:00,
2013-07-07 02:17:00,71.0,68.3,30.04,SW,221,0.0,5.0,91,0.00,,OVC OVC///CB,0.00,WUHU216DAVISVP2,2013-07-07 06:17:00,
2013-07-07 02:22:00,70.8,68.1,30.04,SSW,200,1.0,5.0,91,0.00,,OVC OVC///CB,0.00,WUHU216DAVISVP2,2013-07-07 06:22:00,
2013-07-07 02:27:00,70.7,68.4,30.04,SSW,198,0.0,4.0,92,0.00,,OVC OVC///CB,0.00,WUHU216DAVISVP2,2013-07-07 06:27:00,
2013-07-07 02:32:00,70.6,68.3,30.04,SW,214,0.0,3.0,92,0.00,,OVC OVC///CB,0.00,WUHU216DAVISVP2,2013-07-07 06:32:00,
2013-07-07 02:37:00,70.4,68.4,30.04,SW,219,0.0,3.0,93,0.00,,OVC OVC///CB,0.00,WUHU216DAVISVP2,2013-07-07 06:37:00,
2013-07-07 02:42:00,70.2,68.2,30.03,SSW,193,2.0,3.0,93,0.00,,OVC OVC///CB,0.00,WUHU216DAVISVP2,2013-07-07 06:42:00,
2013-07-07 02:47:00,70.1,68.1,30.03,SSW,207,1.0,3.0,93,0.00,,OVC OVC///CB,0.00,WUHU216DAVISVP2,2013-07-07 06:47:00,
2013-07-07 02:52:00,70.0,68.3,30.03,SSW,197,0.0,2.0,94,0.00,,OVC OVC///CB,0.00,WUHU216DAVISVP2,2013-07-07 06:52:00,
2013-07-07 02:57:00,69.9,68.2,30.03,SSW,200,0.0,3.0,94,0.00,,OVC OVC///CB,0.00,WUHU216DAVISVP2,2013-07-07 06:57:00,
2013-07-07 03:02:00,69.8,68.1,30.03,SSW,193,0.0,3.0,94,0.00,,OVC OVC///CB,0.00,WUHU216DAVISVP2,2013-07-07 07:02:00,
2013-07-07 03:07:00,69.7,68.0,30.04,SSW,197,2.0,4.0,94,0.00,,OVC OVC///CB,0.00,WUHU216DAVISVP2,2013-07-07 07:07:00,
2013-07-07 03:12:00,69.7,68.0,30.03,SSW,198,2.0,4.0,94,0.00,,OVC OVC///CB,0.00,WUHU216DAVISVP2,2013-07-07 07:12:00,
2013-07-07 03:17:00,69.6,67.6,30.03,SSE,150,0.0,5.0,93,0.00,,OVC OVC///CB,0.00,WUHU216DAVISVP2,2013-07-07 07:17:00,
2013-07-07 03:22:00,69.5,67.5,30.03,SSW,199,1.0,5.0,93,0.00,,OVC OVC///CB,0.00,WUHU216DAVISVP2,2013-07-07 07:22:00,
2013-07-07 03:27:00,69.5,67.5,30.03,WSW,245,1.0,5.0,93,0.00,,OVC OVC///CB,0.00,WUHU216DAVISVP2,2013-07-07 07:27:00,
2013-07-07 03:32:00,69.4,67.7,30.03,SSW,205,0.0,5.0,94,0.00,,OVC OVC///CB,0.00,WUHU216DAVISVP2,2013-07-07 07:32:00,
2013-07-07 03:37:00,69.3,67.6,30.03,SE,134,4.0,5.0,94,0.00,,OVC OVC///CB,0.00,WUHU216DAVISVP2,2013-07-07 07:37:00,
2013-07-07 03:42:00,69.2,67.5,30.04,SW,214,0.0,5.0,94,0.00,,OVC OVC///CB,0.00,WUHU216DAVISVP2,2013-07-07 07:42:00,
2013-07-07 03:47:00,69.1,67.4,30.04,SW,229,0.0,5.0,94,0.00,,OVC OVC///CB,0.00,WUHU216DAVISVP2,2013-07-07 07:47:00,
2013-07-07 03:52:00,69.1,67.4,30.03,South,170,0.0,5.0,94,0.00,,OVC OVC///CB,0.00,WUHU216DAVISVP2,2013-07-07 07:52:00,
2013-07-07 03:57:00,69.0,67.3,30.03,SSE,167,0.0,5.0,94,0.00,,OVC OVC///CB,0.00,WUHU216DAVISVP2,2013-07-07 07:57:00,
2013-07-07 04:02:00,68.9,67.2,30.02,SSE,154,0.0,4.0,94,0.00,,OVC OVC///CB,0.00,WUHU216DAVISVP2,2013-07-07 08:02:00,
2013-07-07 04:07:00,68.8,67.1,30.03,SW,221,0.0,4.0,94,0.00,,OVC OVC///CB,0.00,WUHU216DAVISVP2,2013-07-07 08:07:00,
2013-07-07 04:12:00,68.6,66.9,30.03,South,179,0.0,4.0,94,0.00,,OVC OVC///CB,0.00,WUHU216DAVISVP2,2013-07-07 08:12:00,
2013-07-07 04:17:00,68.5,66.8,30.03,South,186,0.0,4.0,94,0.00,,OVC OVC///CB,0.00,WUHU216DAVISVP2,2013-07-07 08:17:00,
2013-07-07 04:22:00,68.4,67.0,30.03,SSW,194,2.0,5.0,95,0.00,,OVC OVC///CB,0.00,WUHU216DAVISVP2,2013-07-07 08:22:00,
2013-07-07 04:27:00,68.4,67.0,30.04,SW,215,1.0,5.0,95,0.00,,OVC OVC///CB,0.00,WUHU216DAVISVP2,2013-07-07 08:27:00,
2013-07-07 04:32:00,68.4,67.0,30.04,South,181,2.0,5.0,95,0.00,,OVC OVC///CB,0.00,WUHU216DAVISVP2,2013-07-07 08:32:00,
2013-07-07 04:37:00,68.3,66.9,30.03,West,265,2.0,5.0,95,0.00,,OVC OVC///CB,0.00,WUHU216DAVISVP2,2013-07-07 08:37:00,
2013-07-07 04:42:00,68.3,66.9,30.03,West,267,3.0,5.0,95,0.00,,OVC OVC///CB,0.00,WUHU216DAVISVP2,2013-07-07 08:42:00,
2013-07-07 04:47:00,68.3,66.9,30.03,SSW,203,1.0,5.0,95,0.00,,OVC OVC///CB,0.00,WUHU216DAVISVP2,2013-07-07 08:47:00,
2013-07-07 04:52:00,68.2,66.8,30.03,SW,226,1.0,5.0,95,0.00,,OVC OVC///CB,0.00,WUHU216DAVISVP2,2013-07-07 08:52:00,
2013-07-07 04:57:00,68.2,66.8,30.03,WSW,237,2.0,5.0,95,0.00,,OVC OVC///CB,0.00,WUHU216DAVISVP2,2013-07-07 08:57:00,
2013-07-07 05:02:00,68.2,66.8,30.03,SW,224,0.0,5.0,95,0.00,,OVC OVC///CB,0.00,WUHU216DAVISVP2,2013-07-07 09:02:00,
2013-07-07 05:07:00,68.1,66.7,30.04,SW,226,0.0,5.0,95,0.00,,OVC OVC///CB,0.00,WUHU216DAVISVP2,2013-07-07 09:07:00,
2013-07-07 05:12:00,68.1,66.7,30.04,WSW,245,0.0,5.0,95,0.00,,OVC OVC///CB,0.00,WUHU216DAVISVP2,2013-07-07 09:12:00,
2013-07-07 05:17:00,68.1,66.7,30.04,SSW,207,0.0,5.0,95,0.00,,OVC OVC///CB,0.00,WUHU216DAVISVP2,2013-07-07 09:17:00,
2013-07-07 05:22:00,68.1,66.7,30.04,West,260,0.0,5.0,95,0.00,,OVC OVC///CB,0.00,WUHU216DAVISVP2,2013-07-07 09:22:00,
2013-07-07 05:27:00,68.0,66.6,30.04,SSW,204,1.0,5.0,95,0.00,,OVC OVC///CB,0.00,WUHU216DAVISVP2,2013-07-07 09:27:00,
2013-07-07 05:32:00,68.0,66.6,30.04,SW,226,1.0,4.0,95,0.00,,OVC OVC///CB,0.00,WUHU216DAVISVP2,2013-07-07 09:32:00,
2013-07-07 05:37:00,68.0,66.6,30.04,SSW,205,1.0,5.0,95,0.00,,OVC OVC///CB,0.00,WUHU216DAVISVP2,2013-07-07 09:37:00,
2013-07-07 05:42:00,67.9,66.5,30.03,WSW,250,0.0,5.0,95,0.00,,OVC OVC///CB,0.00,WUHU216DAVISVP2,2013-07-07 09:42:00,
2013-07-07 05:47:00,67.8,66.4,30.04,WSW,240,1.0,4.0,95,0.00,,OVC OVC///CB,0.00,WUHU216DAVISVP2,2013-07-07 09:47:00,
2013-07-07 05:52:00,67.8,66.4,30.04,SW,224,0.0,4.0,95,0.00,,OVC OVC///CB,0.00,WUHU216DAVISVP2,2013-07-07 09:52:00,
2013-07-07 05:57:00,67.7,66.3,30.04,SSE,153,0.0,3.0,95,0.00,,OVC OVC///CB,0.00,WUHU216DAVISVP2,2013-07-07 09:57:00,
2013-07-07 06:02:00,67.6,66.5,30.04,SSW,203,0.0,3.0,96,0.00,,OVC OVC///CB,0.00,WUHU216DAVISVP2,2013-07-07 10:02:00,
2013-07-07 06:07:00,67.5,66.4,30.04,SSW,203,1.0,3.0,96,0.00,,OVC OVC///CB,0.00,WUHU216DAVISVP2,2013-07-07 10:07:00,
2013-07-07 06:12:00,67.4,66.3,30.04,SSW,207,1.0,3.0,96,0.00,,OVC OVC///CB,0.00,WUHU216DAVISVP2,2013-07-07 10:12:00,
2013-07-07 06:17:00,67.4,66.3,30.05,SW,235,2.0,4.0,96,0.00,,OVC OVC///CB,0.00,WUHU216DAVISVP2,2013-07-07 10:17:00,
2013-07-07 06:22:00,67.4,66.3,30.05,SW,220,1.0,4.0,96,0.00,,OVC OVC///CB,0.00,WUHU216DAVISVP2,2013-07-07 10:22:00,
2013-07-07 06:27:00,67.5,66.4,30.05,WSW,240,0.0,3.0,96,0.00,,OVC OVC///CB,0.00,WUHU216DAVISVP2,2013-07-07 10:27:00,
2013-07-07 06:32:00,67.5,66.1,30.05,WSW,240,4.0,4.0,95,0.00,,OVC OVC///CB,0.00,WUHU216DAVISVP2,2013-07-07 10:32:00,
2013-07-07 06:37:00,67.6,66.2,30.05,SSE,162,2.0,8.0,95,0.00,,OVC OVC///CB,0.00,WUHU216DAVISVP2,2013-07-07 10:37:00,
2013-07-07 06:42:00,67.6,66.2,30.04,SSW,204,1.0,8.0,95,0.00,,OVC OVC///CB,0.00,WUHU216DAVISVP2,2013-07-07 10:42:00,
2013-07-07 06:47:00,67.7,66.3,30.05,SW,235,1.0,8.0,95,0.00,,OVC OVC///CB,0.00,WUHU216DAVISVP2,2013-07-07 10:47:00,
2013-07-07 06:52:00,67.7,66.3,30.04,SSW,199,2.0,8.0,95,0.00,,OVC OVC///CB,0.00,WUHU216DAVISVP2,2013-07-07 10:52:00,
2013-07-07 06:57:00,67.7,66.3,30.04,WSW,242,1.0,6.0,95,0.00,,OVC OVC///CB,0.00,WUHU216DAVISVP2,2013-07-07 10:57:00,
2013-07-07 07:02:00,67.8,66.4,30.05,SW,227,4.0,6.0,95,0.00,,OVC OVC///CB,0.00,WUHU216DAVISVP2,2013-07-07 11:02:00,
2013-07-07 07:07:00,67.9,66.5,30.05,SSW,205,2.0,5.0,95,0.00,,OVC OVC///CB,0.00,WUHU216DAVISVP2,2013-07-07 11:07:00,
2013-07-07 07:12:00,67.9,66.5,30.05,WSW,238,1.0,5.0,95,0.00,,OVC OVC///CB,0.00,WUHU216DAVISVP2,2013-07-07 11:12:00,
2013-07-07 07:17:00,68.0,66.6,30.04,SW,235,0.0,5.0,95,0.00,,OVC OVC///CB,0.00,WUHU216DAVISVP2,2013-07-07 11:17:00,
2013-07-07 07:22:00,68.1,66.4,30.04,WSW,245,4.0,5.0,94,0.00,,OVC OVC///CB,0.00,WUHU216DAVISVP2,2013-07-07 11:22:00,
2013-07-07 07:27:00,68.0,66.3,30.04,WSW,238,5.0,6.0,94,0.00,,OVC OVC///CB,0.00,WUHU216DAVISVP2,2013-07-07 11:27:00,
2013-07-07 07:32:00,68.0,66.3,30.04,SSW,207,3.0,6.0,94,0.00,,OVC OVC///CB,0.00,WUHU216DAVISVP2,2013-07-07 11:32:00,
2013-07-07 07:37:00,68.0,66.3,30.05,WSW,242,2.0,6.0,94,0.00,,OVC OVC///CB,0.00,WUHU216DAVISVP2,2013-07-07 11:37:00,
2013-07-07 07:42:00,68.0,66.3,30.05,SW,215,2.0,6.0,94,0.00,,OVC OVC///CB,0.00,WUHU216DAVISVP2,2013-07-07 11:42:00,
2013-07-07 07:47:00,68.0,66.3,30.05,South,179,4.0,6.0,94,0.00,,OVC OVC///CB,0.00,WUHU216DAVISVP2,2013-07-07 11:47:00,
2013-07-07 07:52:00,68.0,66.3,30.05,SW,225,3.0,5.0,94,0.00,,OVC OVC///CB,0.00,WUHU216DAVISVP2,2013-07-07 11:52:00,
2013-07-07 07:57:00,68.2,66.5,30.05,SSW,203,1.0,5.0,94,0.00,,OVC OVC///CB,0.00,WUHU216DAVISVP2,2013-07-07 11:57:00,
2013-07-07 08:02:00,68.3,66.6,30.05,SSW,210,0.0,5.0,94,0.00,,OVC OVC///CB,0.00,WUHU216DAVISVP2,2013-07-07 12:02:00,
2013-07-07 08:07:00,68.7,66.7,30.05,South,190,2.0,4.0,93,0.00,,OVC OVC///CB,0.00,WUHU216DAVISVP2,2013-07-07 12:07:00,
2013-07-07 08:12:00,69.1,67.1,30.05,WSW,240,1.0,9.0,93,0.00,,OVC OVC///CB,0.00,WUHU216DAVISVP2,2013-07-07 12:12:00,
2013-07-07 08:17:00,69.4,67.1,30.05,West,262,2.0,9.0,92,0.00,,OVC OVC///CB,0.00,WUHU216DAVISVP2,2013-07-07 12:17:00,
2013-07-07 08:22:00,69.5,67.2,30.05,SSW,212,1.0,9.0,92,0.00,,OVC OVC///CB,0.00,WUHU216DAVISVP2,2013-07-07 12:22:00,
2013-07-07 08:27:00,69.7,67.4,30.06,West,259,1.0,9.0,92,0.00,,OVC OVC///CB,0.00,WUHU216DAVISVP2,2013-07-07 12:27:00,
2013-07-07 08:32:00,69.9,67.6,30.06,WNW,302,4.0,7.0,92,0.00,,OVC OVC///CB,0.00,WUHU216DAVISVP2,2013-07-07 12:32:00,
2013-07-07 08:37:00,70.1,67.5,30.06,SW,218,1.0,5.0,91,0.00,,OVC OVC///CB,0.00,WUHU216DAVISVP2,2013-07-07 12:37:00,
2013-07-07 08:42:00,70.2,67.6,30.07,WSW,249,1.0,8.0,91,0.00,,OVC OVC///CB,0.00,WUHU216DAVISVP2,2013-07-07 12:42:00,
2013-07-07 08:47:00,70.4,67.4,30.06,West,277,2.0,8.0,90,0.00,,OVC OVC///CB,0.00,WUHU216DAVISVP2,2013-07-07 12:47:00,
2013-07-07 08:52:00,70.6,67.6,30.06,WSW,239,0.0,8.0,90,0.00,,OVC OVC///CB,0.00,WUHU216DAVISVP2,2013-07-07 12:52:00,
2013-07-07 08:57:00,70.4,67.1,30.07,SW,235,2.0,9.0,89,0.00,,OVC OVC///CB,0.00,WUHU216DAVISVP2,2013-07-07 12:57:00,
2013-07-07 09:02:00,70.3,67.3,30.07,SW,226,2.0,9.0,90,0.00,,OVC OVC///CB,0.00,WUHU216DAVISVP2,2013-07-07 13:02:00,
2013-07-07 09:07:00,70.0,67.0,30.07,WSW,244,4.0,9.0,90,0.00,,OVC OVC///CB,0.00,WUHU216DAVISVP2,2013-07-07 13:07:00,
2013-07-07 09:12:00,70.0,67.0,30.07,WSW,240,2.0,9.0,90,0.00,,OVC OVC///CB,0.00,WUHU216DAVISVP2,2013-07-07 13:12:00,
2013-07-07 09:17:00,70.1,67.1,30.07,WSW,238,2.0,6.0,90,0.00,,OVC OVC///CB,0.00,WUHU216DAVISVP2,2013-07-07 13:17:00,
2013-07-07 09:22:00,70.1,67.1,30.07,South,190,1.0,6.0,90,0.00,,OVC OVC///CB,0.00,WUHU216DAVISVP2,2013-07-07 13:22:00,
2013-07-07 09:27:00,70.0,67.0,30.07,WSW,238,0.0,6.0,90,0.00,,OVC OVC///CB,0.00,WUHU216DAVISVP2,2013-07-07 13:27:00,
2013-07-07 09:32:00,70.1,67.5,30.07,WSW,249,4.0,6.0,91,0.00,,OVC OVC///CB,0.00,WUHU216DAVISVP2,2013-07-07 13:32:00,
2013-07-07 09:37:00,69.9,66.9,30.07,SSW,203,2.0,7.0,90,0.00,,OVC OVC///CB,0.00,WUHU216DAVISVP2,2013-07-07 13:37:00,
2013-07-07 09:42:00,69.7,66.7,30.07,SSW,212,5.0,9.0,90,0.00,,OVC OVC///CB,0.00,WUHU216DAVISVP2,2013-07-07 13:42:00,
2013-07-07 09:47:00,69.8,66.8,30.07,WSW,242,5.0,9.0,90,0.00,,OVC OVC///CB,0.00,WUHU216DAVISVP2,2013-07-07 13:47:00,
2013-07-07 09:52:00,69.8,66.8,30.07,SW,228,2.0,9.0,90,0.00,,OVC OVC///CB,0.00,WUHU216DAVISVP2,2013-07-07 13:52:00,
2013-07-07 09:57:00,69.8,66.8,30.07,SSW,205,4.0,10.0,90,0.00,,OVC OVC///CB,0.00,WUHU216DAVISVP2,2013-07-07 13:57:00,
2013-07-07 10:02:00,69.8,67.2,30.07,WNW,295,1.0,10.0,91,0.00,,OVC OVC///CB,0.00,WUHU216DAVISVP2,2013-07-07 14:02:00,
2013-07-07 10:07:00,69.7,67.1,30.06,SW,226,2.0,10.0,91,0.00,,OVC OVC///CB,0.00,WUHU216DAVISVP2,2013-07-07 14:07:00,
2013-07-07 10:12:00,69.7,67.1,30.06,WNW,296,4.0,9.0,91,0.00,,OVC OVC///CB,0.00,WUHU216DAVISVP2,2013-07-07 14:12:00,
2013-07-07 10:17:00,69.9,67.6,30.06,SW,221,5.0,7.0,92,0.00,,OVC OVC///CB,0.00,WUHU216DAVISVP2,2013-07-07 14:17:00,
2013-07-07 10:22:00,70.1,67.5,30.06,West,273,4.0,7.0,91,0.00,,OVC OVC///CB,0.00,WUHU216DAVISVP2,2013-07-07 14:22:00,
2013-07-07 10:27:00,70.2,67.9,30.06,SW,228,3.0,7.0,92,0.00,,OVC OVC///CB,0.00,WUHU216DAVISVP2,2013-07-07 14:27:00,
2013-07-07 10:32:00,70.1,67.5,30.06,SSW,208,1.0,7.0,91,0.00,,OVC OVC///CB,0.00,WUHU216DAVISVP2,2013-07-07 14:32:00,
2013-07-07 10:37:00,70.2,67.9,30.07,SW,229,7.0,7.0,92,0.00,,OVC OVC///CB,0.00,WUHU216DAVISVP2,2013-07-07 14:37:00,
2013-07-07 10:42:00,70.2,67.6,30.07,SW,233,5.0,9.0,91,0.00,,OVC OVC///CB,0.00,WUHU216DAVISVP2,2013-07-07 14:42:00,
2013-07-07 10:47:00,70.2,67.6,30.08,SW,229,3.0,10.0,91,0.00,,OVC OVC///CB,0.00,WUHU216DAVISVP2,2013-07-07 14:47:00,
2013-07-07 10:52:00,70.2,67.6,30.06,WSW,239,8.0,10.0,91,0.00,,OVC OVC///CB,0.00,WUHU216DAVISVP2,2013-07-07 14:52:00,
2013-07-07 10:57:00,70.9,68.2,30.06,SW,222,1.0,10.0,91,0.00,,OVC OVC///CB,0.00,WUHU216DAVISVP2,2013-07-07 14:57:00,
2013-07-07 11:02:00,71.6,68.0,30.06,WSW,246,4.0,9.0,88,0.00,,OVC OVC///CB,0.00,WUHU216DAVISVP2,2013-07-07 15:02:00,
2013-07-07 11:07:00,71.7,68.1,30.06,West,264,0.0,9.0,88,0.00,,OVC OVC///CB,0.00,WUHU216DAVISVP2,2013-07-07 15:07:00,
2013-07-07 11:12:00,72.0,68.1,30.06,WSW,242,3.0,7.0,87,0.00,,OVC OVC///CB,0.00,WUHU216DAVISVP2,2013-07-07 15:12:00,
2013-07-07 11:17:00,71.9,68.3,30.06,SSW,200,0.0,7.0,88,0.00,,OVC OVC///CB,0.00,WUHU216DAVISVP2,2013-07-07 15:17:00,
2013-07-07 11:22:00,72.0,68.1,30.06,WSW,240,1.0,7.0,87,0.00,,OVC OVC///CB,0.00,WUHU216DAVISVP2,2013-07-07 15:22:00,
2013-07-07 11:27:00,72.1,68.2,30.07,SSW,212,2.0,7.0,87,0.00,,OVC OVC///CB,0.00,WUHU216DAVISVP2,2013-07-07 15:27:00,
2013-07-07 11:32:00,72.0,68.1,30.07,WNW,282,2.0,7.0,87,0.00,,OVC OVC///CB,0.00,WUHU216DAVISVP2,2013-07-07 15:32:00,
2013-07-07 11:37:00,71.9,68.0,30.07,SSW,207,1.0,7.0,87,0.00,,OVC OVC///CB,0.00,WUHU216DAVISVP2,2013-07-07 15:37:00,
2013-07-07 11:42:00,71.9,67.6,30.07,WSW,238,5.0,8.0,86,0.00,,OVC OVC///CB,0.00,WUHU216DAVISVP2,2013-07-07 15:42:00,
2013-07-07 11:47:00,72.1,68.2,30.06,SSW,201,1.0,8.0,87,0.00,,OVC OVC///CB,0.00,WUHU216DAVISVP2,2013-07-07 15:47:00,
2013-07-07 11:52:00,72.7,68.1,30.07,SW,229,2.0,8.0,85,0.00,,OVC OVC///CB,0.00,WUHU216DAVISVP2,2013-07-07 15:52:00,
2013-07-07 11:57:00,72.9,68.3,30.06,WSW,257,3.0,8.0,85,0.00,,OVC OVC///CB,0.00,WUHU216DAVISVP2,2013-07-07 15:57:00,
2013-07-07 12:02:00,73.0,68.1,30.06,SW,218,3.0,8.0,84,0.00,,OVC OVC///CB,0.00,WUHU216DAVISVP2,2013-07-07 16:02:00,
2013-07-07 12:07:00,73.2,68.9,30.06,SSW,195,0.0,8.0,86,0.00,,OVC OVC///CB,0.00,WUHU216DAVISVP2,2013-07-07 16:07:00,
2013-07-07 12:12:00,74.0,68.7,30.06,SSW,204,0.0,8.0,83,0.00,,OVC OVC///CB,0.00,WUHU216DAVISVP2,2013-07-07 16:12:00,
2013-07-07 12:17:00,74.9,69.2,30.06,SSW,208,4.0,6.0,82,0.00,,OVC OVC///CB,0.00,WUHU216DAVISVP2,2013-07-07 16:17:00,
2013-07-07 12:22:00,75.0,69.3,30.06,SW,232,1.0,6.0,82,0.00,,OVC OVC///CB,0.00,WUHU216DAVISVP2,2013-07-07 16:22:00,
2013-07-07 12:26:00,75.5,69.1,30.06,SSW,204,5.0,7.0,80,0.00,,OVC OVC///CB,0.00,WUHU216DAVISVP2,2013-07-07 16:26:00,
2013-07-07 12:32:00,75.3,69.3,30.06,WSW,243,1.0,7.0,81,0.00,,OVC OVC///CB,0.00,WUHU216DAVISVP2,2013-07-07 16:32:00,
2013-07-07 12:37:00,75.6,69.6,30.06,SW,224,7.0,7.0,81,0.00,,OVC OVC///CB,0.00,WUHU216DAVISVP2,2013-07-07 16:37:00,
2013-07-07 12:42:00,75.7,68.6,30.05,SE,143,0.0,10.0,78,0.00,,OVC OVC///CB,0.00,WUHU216DAVISVP2,2013-07-07 16:42:00,
2013-07-07 12:47:00,76.6,69.5,30.05,SSW,205,3.0,10.0,78,0.00,,OVC OVC///CB,0.00,WUHU216DAVISVP2,2013-07-07 16:47:00,
2013-07-07 12:52:00,77.0,69.5,30.05,WSW,245,1.0,10.0,77,0.00,,OVC OVC///CB,0.00,WUHU216DAVISVP2,2013-07-07 16:52:00,
2013-07-07 12:57:00,76.6,68.8,30.05,SW,214,1.0,10.0,76,0.00,,OVC OVC///CB,0.00,WUHU216DAVISVP2,2013-07-07 16:57:00,
2013-07-07 13:02:00,76.3,68.5,30.04,South,172,0.0,8.0,76,0.00,,OVC OVC///CB,0.00,WUHU216DAVISVP2,2013-07-07 17:02:00,
2013-07-07 13:07:00,76.2,68.7,30.04,SSW,200,3.0,7.0,77,0.00,,OVC OVC///CB,0.00,WUHU216DAVISVP2,2013-07-07 17:07:00,
2013-07-07 13:12:00,76.3,68.5,30.05,SSW,210,4.0,7.0,76,0.00,,OVC OVC///CB,0.00,WUHU216DAVISVP2,2013-07-07 17:12:00,
2013-07-07 13:17:00,76.2,68.4,30.04,SSW,198,2.0,6.0,76,0.00,,OVC OVC///CB,0.00,WUHU216DAVISVP2,2013-07-07 17:17:00,
2013-07-07 13:22:00,75.7,68.3,30.04,SSW,203,2.0,7.0,77,0.00,,OVC OVC///CB,0.00,WUHU216DAVISVP2,2013-07-07 17:22:00,
2013-07-07 13:27:00,75.5,68.1,30.04,WSW,238,2.0,7.0,77,0.00,,OVC OVC///CB,0.00,WUHU216DAVISVP2,2013-07-07 17:27:00,
2013-07-07 13:32:00,75.7,68.6,30.04,SSW,207,2.0,7.0,78,0.00,,OVC OVC///CB,0.00,WUHU216DAVISVP2,2013-07-07 17:32:00,
2013-07-07 13:37:00,75.5,68.4,30.04,SW,229,2.0,7.0,78,0.00,,OVC OVC///CB,0.00,WUHU216DAVISVP2,2013-07-07 17:37:00,
2013-07-07 13:42:00,75.6,67.8,30.04,SW,229,5.0,9.0,76,0.00,,OVC OVC///CB,0.00,WUHU216DAVISVP2,2013-07-07 17:42:00,
2013-07-07 13:47:00,75.4,68.3,30.04,SSE,157,2.0,9.0,78,0.00,,OVC OVC///CB,0.00,WUHU216DAVISVP2,2013-07-07 17:47:00,
2013-07-07 13:52:00,76.0,68.9,30.04,SSE,156,3.0,8.0,78,0.00,,OVC OVC///CB,0.00,WUHU216DAVISVP2,2013-07-07 17:52:00,
2013-07-07 13:57:00,76.6,68.8,30.03,West,278,1.0,8.0,76,0.00,,OVC OVC///CB,0.00,WUHU216DAVISVP2,2013-07-07 17:57:00,
2013-07-07 14:02:00,76.7,69.2,30.03,SW,233,6.0,8.0,77,0.00,,OVC OVC///CB,0.00,WUHU216DAVISVP2,2013-07-07 18:02:00,
2013-07-07 14:07:00,76.8,69.7,30.03,SSW,193,0.0,8.0,78,0.00,,OVC OVC///CB,0.00,WUHU216DAVISVP2,2013-07-07 18:07:00,
2013-07-07 14:12:00,77.7,69.8,30.03,West,264,2.0,8.0,76,0.00,,OVC OVC///CB,0.00,WUHU216DAVISVP2,2013-07-07 18:12:00,
2013-07-07 14:17:00,77.6,69.7,30.03,WSW,243,2.0,6.0,76,0.00,,OVC OVC///CB,0.00,WUHU216DAVISVP2,2013-07-07 18:17:00,
2013-07-07 14:22:00,77.4,69.5,30.03,SW,235,0.0,5.0,76,0.00,,OVC OVC///CB,0.00,WUHU216DAVISVP2,2013-07-07 18:22:00,
2013-07-07 14:27:00,77.3,69.1,30.03,SW,235,3.0,5.0,75,0.00,,OVC OVC///CB,0.00,WUHU216DAVISVP2,2013-07-07 18:27:00,
2013-07-07 14:32:00,76.9,68.7,30.03,SSW,207,1.0,6.0,75,0.00,,OVC OVC///CB,0.00,WUHU216DAVISVP2,2013-07-07 18:32:00,
2013-07-07 14:37:00,77.0,69.2,30.03,SSW,212,2.0,6.0,76,0.00,,OVC OVC///CB,0.00,WUHU216DAVISVP2,2013-07-07 18:37:00,
2013-07-07 14:42:00,77.1,68.9,30.02,SW,214,3.0,6.0,75,0.00,,OVC OVC///CB,0.00,WUHU216DAVISVP2,2013-07-07 18:42:00,
2013-07-07 14:47:00,77.5,69.6,30.03,SSE,148,3.0,6.0,76,0.00,,OVC OVC///CB,0.00,WUHU216DAVISVP2,2013-07-07 18:47:00,
2013-07-07 14:52:00,77.3,69.1,30.03,SSW,210,3.0,6.0,75,0.00,,OVC OVC///CB,0.00,WUHU216DAVISVP2,2013-07-07 18:52:00,
2013-07-07 14:57:00,77.4,69.2,30.02,WSW,253,0.0,6.0,75,0.00,,OVC OVC///CB,0.00,WUHU216DAVISVP2,2013-07-07 18:57:00,
2013-07-07 15:02:00,77.8,69.6,30.02,West,271,2.0,6.0,75,0.00,,OVC OVC///CB,0.00,WUHU216DAVISVP2,2013-07-07 19:02:00,
2013-07-07 15:07:00,78.1,69.1,30.02,SW,232,1.0,6.0,73,0.00,,OVC OVC///CB,0.00,WUHU216DAVISVP2,2013-07-07 19:07:00,
2013-07-07 15:12:00,77.5,69.6,30.02,West,270,1.0,8.0,76,0.00,,OVC OVC///CB,0.00,WUHU216DAVISVP2,2013-07-07 19:12:00,
2013-07-07 15:17:00,77.6,68.6,30.01,SW,229,4.0,10.0,73,0.00,,OVC OVC///CB,0.00,WUHU216DAVISVP2,2013-07-07 19:17:00,
2013-07-07 15:22:00,77.7,69.5,30.01,WNW,286,2.0,10.0,75,0.00,,OVC OVC///CB,0.00,WUHU216DAVISVP2,2013-07-07 19:22:00,
2013-07-07 15:27:00,77.7,68.7,30.01,SSE,153,1.0,9.0,73,0.00,,OVC OVC///CB,0.00,WUHU216DAVISVP2,2013-07-07 19:27:00,
2013-07-07 15:32:00,77.4,69.5,30.01,WSW,240,3.0,9.0,76,0.00,,OVC OVC///CB,0.00,WUHU216DAVISVP2,2013-07-07 19:32:00,
2013-07-07 15:37:00,77.4,69.2,30.01,WSW,243,3.0,7.0,75,0.00,,OVC OVC///CB,0.00,WUHU216DAVISVP2,2013-07-07 19:37:00,
2013-07-07 15:42:00,77.4,69.5,30.01,NW,308,4.0,10.0,76,0.00,,OVC OVC///CB,0.00,WUHU216DAVISVP2,2013-07-07 19:42:00,
2013-07-07 15:47:00,77.8,70.3,30.00,WSW,257,1.0,10.0,77,0.00,,OVC OVC///CB,0.00,WUHU216DAVISVP2,2013-07-07 19:47:00,
2013-07-07 15:52:00,77.7,69.5,30.00,WNW,283,3.0,9.0,75,0.00,,OVC OVC///CB,0.00,WUHU216DAVISVP2,2013-07-07 19:52:00,
2013-07-07 15:57:00,78.7,70.8,30.00,SW,226,0.0,9.0,76,0.00,,OVC OVC///CB,0.00,WUHU216DAVISVP2,2013-07-07 19:57:00,
2013-07-07 16:02:00,78.4,69.4,29.99,West,264,3.0,9.0,73,0.00,,OVC OVC///CB,0.00,WUHU216DAVISVP2,2013-07-07 20:02:00,
2013-07-07 16:07:00,78.0,69.4,29.99,SW,228,2.0,9.0,74,0.00,,OVC OVC///CB,0.00,WUHU216DAVISVP2,2013-07-07 20:07:00,
2013-07-07 16:12:00,78.4,70.1,29.99,West,260,1.0,9.0,75,0.00,,OVC OVC///CB,0.00,WUHU216DAVISVP2,2013-07-07 20:12:00,
2013-07-07 16:17:00,78.3,69.7,29.99,WSW,255,2.0,8.0,74,0.00,,OVC OVC///CB,0.00,WUHU216DAVISVP2,2013-07-07 20:17:00,
2013-07-07 16:22:00,78.3,69.3,29.98,WNW,293,4.0,8.0,73,0.00,,OVC OVC///CB,0.00,WUHU216DAVISVP2,2013-07-07 20:22:00,
2013-07-07 16:27:00,78.5,69.9,29.99,WSW,253,1.0,8.0,74,0.00,,OVC OVC///CB,0.00,WUHU216DAVISVP2,2013-07-07 20:27:00,
2013-07-07 16:32:00,78.8,69.0,29.98,WNW,291,3.0,7.0,71,0.00,,OVC OVC///CB,0.00,WUHU216DAVISVP2,2013-07-07 20:32:00,
2013-07-07 16:37:00,79.0,69.2,29.98,West,280,2.0,8.0,71,0.00,,OVC OVC///CB,0.00,WUHU216DAVISVP2,2013-07-07 20:37:00,
2013-07-07 16:42:00,78.8,69.0,29.98,SW,231,2.0,8.0,71,0.00,,OVC OVC///CB,0.00,WUHU216DAVISVP2,2013-07-07 20:42:00,
2013-07-07 16:47:00,78.9,69.1,29.98,WSW,251,5.0,8.0,71,0.00,,OVC OVC///CB,0.00,WUHU216DAVISVP2,2013-07-07 20:47:00,
2013-07-07 16:52:00,78.6,68.8,29.98,West,279,3.0,8.0,71,0.00,,OVC OVC///CB,0.00,WUHU216DAVISVP2,2013-07-07 20:52:00,
2013-07-07 16:57:00,78.5,68.7,29.98,WSW,246,4.0,7.0,71,0.00,,OVC OVC///CB,0.00,WUHU216DAVISVP2,2013-07-07 20:57:00,
2013-07-07 17:02:00,78.4,69.4,29.98,WSW,252,3.0,7.0,73,0.00,,OVC OVC///CB,0.00,WUHU216DAVISVP2,2013-07-07 21:02:00,
2013-07-07 17:07:00,78.3,69.3,29.98,WNW,302,3.0,6.0,73,0.00,,OVC OVC///CB,0.00,WUHU216DAVISVP2,2013-07-07 21:07:00,
2013-07-07 17:12:00,78.6,69.6,29.98,West,268,3.0,8.0,73,0.00,,OVC OVC///CB,0.00,WUHU216DAVISVP2,2013-07-07 21:12:00,
2013-07-07 17:17:00,78.4,69.4,29.98,SW,230,1.0,8.0,73,0.00,,OVC OVC///CB,0.00,WUHU216DAVISVP2,2013-07-07 21:17:00,
2013-07-07 17:22:00,78.4,69.4,29.98,West,278,5.0,8.0,73,0.00,,OVC OVC///CB,0.00,WUHU216DAVISVP2,2013-07-07 21:22:00,
2013-07-07 17:27:00,78.2,69.6,29.98,NW,316,2.0,8.0,74,0.00,,OVC OVC///CB,0.00,WUHU216DAVISVP2,2013-07-07 21:27:00,
2013-07-07 17:32:00,78.5,69.9,29.98,SW,233,0.0,7.0,74,0.00,,OVC OVC///CB,0.00,WUHU216DAVISVP2,2013-07-07 21:32:00,
2013-07-07 17:37:00,78.4,68.6,29.98,WSW,247,5.0,7.0,71,0.00,,OVC OVC///CB,0.00,WUHU216DAVISVP2,2013-07-07 21:37:00,
2013-07-07 17:42:00,78.3,68.9,29.97,SW,231,9.0,9.0,72,0.00,,OVC OVC///CB,0.00,WUHU216DAVISVP2,2013-07-07 21:42:00,
2013-07-07 17:47:00,78.6,69.2,29.97,WSW,253,2.0,9.0,72,0.00,,OVC OVC///CB,0.00,WUHU216DAVISVP2,2013-07-07 21:47:00,
2013-07-07 17:52:00,78.8,69.0,29.97,SW,215,3.0,9.0,71,0.00,,OVC OVC///CB,0.00,WUHU216DAVISVP2,2013-07-07 21:52:00,
2013-07-07 17:57:00,79.2,69.8,29.97,SW,233,1.0,9.0,72,0.00,,OVC OVC///CB,0.00,WUHU216DAVISVP2,2013-07-07 21:57:00,
2013-07-07 18:02:00,79.0,69.6,29.97,SW,228,6.0,9.0,72,0.00,,OVC OVC///CB,0.00,WUHU216DAVISVP2,2013-07-07 22:02:00,
2013-07-07 18:07:00,78.5,69.1,29.98,West,271,1.0,11.0,72,0.00,,OVC OVC///CB,0.00,WUHU216DAVISVP2,2013-07-07 22:07:00,
2013-07-07 18:12:00,78.5,69.1,29.98,WSW,257,5.0,11.0,72,0.00,,OVC OVC///CB,0.00,WUHU216DAVISVP2,2013-07-07 22:12:00,
2013-07-07 18:17:00,79.0,69.2,29.98,WNW,290,2.0,10.0,71,0.00,,OVC OVC///CB,0.00,WUHU216DAVISVP2,2013-07-07 22:17:00,
2013-07-07 18:22:00,78.8,69.4,29.97,SW,232,1.0,10.0,72,0.00,,OVC OVC///CB,0.00,WUHU216DAVISVP2,2013-07-07 22:22:00,
2013-07-07 18:27:00,79.1,69.7,29.98,SW,226,4.0,10.0,72,0.00,,OVC OVC///CB,0.00,WUHU216DAVISVP2,2013-07-07 22:27:00,
2013-07-07 18:32:00,79.1,69.7,29.98,SW,219,3.0,10.0,72,0.00,,OVC OVC///CB,0.00,WUHU216DAVISVP2,2013-07-07 22:32:00,
2013-07-07 18:37:00,79.2,69.0,29.97,WSW,242,3.0,10.0,70,0.00,,OVC OVC///CB,0.00,WUHU216DAVISVP2,2013-07-07 22:37:00,
2013-07-07 18:42:00,79.2,69.8,29.97,WSW,249,2.0,9.0,72,0.00,,OVC OVC///CB,0.00,WUHU216DAVISVP2,2013-07-07 22:42:00,
2013-07-07 18:47:00,79.4,69.9,29.97,SW,231,2.0,9.0,72,0.00,,OVC OVC///CB,0.00,WUHU216DAVISVP2,2013-07-07 22:47:00,
2013-07-07 18:52:00,79.0,69.6,29.97,SW,222,8.0,8.0,72,0.00,,OVC OVC///CB,0.00,WUHU216DAVISVP2,2013-07-07 22:52:00,
2013-07-07 18:57:00,78.5,69.1,29.97,SW,226,2.0,8.0,72,0.00,,OVC OVC///CB,0.00,WUHU216DAVISVP2,2013-07-07 22:57:00,
2013-07-07 19:02:00,78.2,69.2,29.98,SW,229,2.0,8.0,73,0.00,,OVC OVC///CB,0.00,WUHU216DAVISVP2,2013-07-07 23:02:00,
2013-07-07 19:07:00,78.2,68.8,29.98,SW,214,4.0,11.0,72,0.00,,OVC OVC///CB,0.00,WUHU216DAVISVP2,2013-07-07 23:07:00,
2013-07-07 19:12:00,78.6,69.2,29.98,West,276,7.0,11.0,72,0.00,,OVC OVC///CB,0.00,WUHU216DAVISVP2,2013-07-07 23:12:00,
2013-07-07 19:17:00,78.6,68.0,29.98,West,280,4.0,10.0,69,0.00,,OVC OVC///CB,0.00,WUHU216DAVISVP2,2013-07-07 23:17:00,
2013-07-07 19:22:00,78.5,68.3,29.98,West,274,2.0,10.0,70,0.00,,OVC OVC///CB,0.00,WUHU216DAVISVP2,2013-07-07 23:22:00,
2013-07-07 19:27:00,78.3,68.5,29.98,SW,221,2.0,9.0,71,0.00,,OVC OVC///CB,0.00,WUHU216DAVISVP2,2013-07-07 23:27:00,
2013-07-07 19:32:00,78.2,68.8,29.98,WSW,240,6.0,7.0,72,0.00,,OVC OVC///CB,0.00,WUHU216DAVISVP2,2013-07-07 23:32:00,
2013-07-07 19:37:00,78.0,68.6,29.98,SSW,212,0.0,7.0,72,0.00,,OVC OVC///CB,0.00,WUHU216DAVISVP2,2013-07-07 23:37:00,
2013-07-07 19:42:00,78.0,68.6,29.98,SW,231,5.0,6.0,72,0.00,,OVC OVC///CB,0.00,WUHU216DAVISVP2,2013-07-07 23:42:00,
2013-07-07 19:47:00,77.9,68.5,29.98,SW,231,4.0,6.0,72,0.00,,OVC OVC///CB,0.00,WUHU216DAVISVP2,2013-07-07 23:47:00,
2013-07-07 19:52:00,77.7,68.7,29.98,WSW,240,4.0,7.0,73,0.00,,OVC OVC///CB,0.00,WUHU216DAVISVP2,2013-07-07 23:52:00,
2013-07-07 19:57:00,77.8,69.2,29.99,SSW,200,1.0,7.0,74,0.00,,OVC OVC///CB,0.00,WUHU216DAVISVP2,2013-07-07 23:57:00,
2013-07-07 20:02:00,77.7,69.1,29.99,West,276,1.0,7.0,74,0.00,,OVC OVC///CB,0.00,WUHU216DAVISVP2,2013-07-08 00:02:00,
2013-07-07 20:07:00,77.5,68.5,29.99,SW,230,2.0,7.0,73,0.00,,OVC OVC///CB,0.00,WUHU216DAVISVP2,2013-07-08 00:07:00,
2013-07-07 20:12:00,77.1,68.5,29.99,SW,224,2.0,7.0,74,0.00,,OVC OVC///CB,0.00,WUHU216DAVISVP2,2013-07-08 00:12:00,
2013-07-07 20:17:00,76.7,68.5,30.00,SW,215,1.0,7.0,75,0.00,,OVC OVC///CB,0.00,WUHU216DAVISVP2,2013-07-08 00:17:00,
2013-07-07 20:22:00,76.4,68.2,30.00,WSW,238,4.0,6.0,75,0.00,,OVC OVC///CB,0.00,WUHU216DAVISVP2,2013-07-08 00:22:00,
2013-07-07 20:27:00,76.1,68.3,30.00,SW,222,2.0,6.0,76,0.00,,OVC OVC///CB,0.00,WUHU216DAVISVP2,2013-07-08 00:27:00,
2013-07-07 20:32:00,75.8,68.0,30.00,SW,214,0.0,5.0,76,0.00,,OVC OVC///CB,0.00,WUHU216DAVISVP2,2013-07-08 00:32:00,
2013-07-07 20:37:00,75.5,68.1,30.00,WSW,256,2.0,3.0,77,0.00,,OVC OVC///CB,0.00,WUHU216DAVISVP2,2013-07-08 00:37:00,
2013-07-07 20:42:00,75.2,68.1,30.00,SW,221,1.0,4.0,78,0.00,,OVC OVC///CB,0.00,WUHU216DAVISVP2,2013-07-08 00:42:00,
2013-07-07 20:47:00,74.9,67.8,30.00,WSW,238,3.0,4.0,78,0.00,,OVC OVC///CB,0.00,WUHU216DAVISVP2,2013-07-08 00:47:00,
2013-07-07 20:52:00,74.8,68.1,30.00,WSW,256,1.0,4.0,79,0.00,,OVC OVC///CB,0.00,WUHU216DAVISVP2,2013-07-08 00:52:00,
2013-07-07 20:57:00,74.6,67.9,30.01,SW,235,0.0,4.0,79,0.00,,OVC OVC///CB,0.00,WUHU216DAVISVP2,2013-07-08 00:57:00,
2013-07-07 21:02:00,74.4,68.1,30.01,SW,233,0.0,3.0,80,0.00,,OVC OVC///CB,0.00,WUHU216DAVISVP2,2013-07-08 01:02:00,
2013-07-07 21:07:00,74.2,67.9,30.01,WSW,243,1.0,3.0,80,0.00,,OVC OVC///CB,0.00,WUHU216DAVISVP2,2013-07-08 01:07:00,
2013-07-07 21:12:00,74.0,68.0,30.01,SW,229,0.0,3.0,81,0.00,,OVC OVC///CB,0.00,WUHU216DAVISVP2,2013-07-08 01:12:00,
2013-07-07 21:17:00,73.9,67.9,30.01,SW,228,0.0,2.0,81,0.00,,OVC OVC///CB,0.00,WUHU216DAVISVP2,2013-07-08 01:17:00,
2013-07-07 21:22:00,73.8,67.8,30.01,SSW,205,0.0,2.0,81,0.00,,OVC OVC///CB,0.00,WUHU216DAVISVP2,2013-07-08 01:22:00,
2013-07-07 21:27:00,73.7,68.1,30.01,SW,225,0.0,2.0,82,0.00,,OVC OVC///CB,0.00,WUHU216DAVISVP2,2013-07-08 01:27:00,
2013-07-07 21:32:00,73.5,68.2,30.01,SW,219,0.0,2.0,83,0.00,,OVC OVC///CB,0.00,WUHU216DAVISVP2,2013-07-08 01:32:00,
2013-07-07 21:37:00,73.3,68.0,30.01,SW,222,0.0,2.0,83,0.00,,OVC OVC///CB,0.00,WUHU216DAVISVP2,2013-07-08 01:37:00,
2013-07-07 21:42:00,73.1,67.8,30.01,SW,221,0.0,2.0,83,0.00,,OVC OVC///CB,0.00,WUHU216DAVISVP2,2013-07-08 01:42:00,
2013-07-07 21:47:00,72.8,67.9,30.01,SW,222,0.0,2.0,84,0.00,,OVC OVC///CB,0.00,WUHU216DAVISVP2,2013-07-08 01:47:00,
2013-07-07 21:52:00,72.6,68.0,30.01,SW,219,0.0,2.0,85,0.00,,OVC OVC///CB,0.00,WUHU216DAVISVP2,2013-07-08 01:52:00,
2013-07-07 21:57:00,72.3,67.7,30.01,SW,219,0.0,1.0,85,0.00,,OVC OVC///CB,0.00,WUHU216DAVISVP2,2013-07-08 01:57:00,
2013-07-07 22:02:00,72.0,67.7,30.02,SW,220,0.0,1.0,86,0.00,,OVC OVC///CB,0.00,WUHU216DAVISVP2,2013-07-08 02:02:00,
2013-07-07 22:07:00,71.8,67.5,30.02,SW,219,0.0,0.0,86,0.00,,OVC OVC///CB,0.00,WUHU216DAVISVP2,2013-07-08 02:07:00,
2013-07-07 22:12:00,71.7,67.8,30.02,SW,219,0.0,1.0,87,0.00,,OVC OVC///CB,0.00,WUHU216DAVISVP2,2013-07-08 02:12:00,
2013-07-07 22:17:00,71.5,67.6,30.02,SSW,193,0.0,1.0,87,0.00,,OVC OVC///CB,0.00,WUHU216DAVISVP2,2013-07-08 02:17:00,
2013-07-07 22:22:00,71.4,67.5,30.02,SSW,193,0.0,1.0,87,0.00,,OVC OVC///CB,0.00,WUHU216DAVISVP2,2013-07-08 02:22:00,
2013-07-07 22:27:00,71.3,67.4,30.02,SSW,193,0.0,1.0,87,0.00,,OVC OVC///CB,0.00,WUHU216DAVISVP2,2013-07-08 02:27:00,
2013-07-07 22:32:00,71.3,67.7,30.02,SSW,198,0.0,1.0,88,0.00,,OVC OVC///CB,0.00,WUHU216DAVISVP2,2013-07-08 02:32:00,
2013-07-07 22:37:00,71.3,67.7,30.03,SSW,205,0.0,1.0,88,0.00,,OVC OVC///CB,0.00,WUHU216DAVISVP2,2013-07-08 02:37:00,
2013-07-07 22:42:00,71.5,67.6,30.03,SW,235,1.0,4.0,87,0.00,,OVC OVC///CB,0.00,WUHU216DAVISVP2,2013-07-08 02:42:00,
2013-07-07 22:47:00,71.8,67.9,30.03,WSW,238,0.0,5.0,87,0.00,,OVC OVC///CB,0.00,WUHU216DAVISVP2,2013-07-08 02:47:00,
2013-07-07 22:52:00,71.7,67.8,30.03,SW,222,0.0,5.0,87,0.00,,OVC OVC///CB,0.00,WUHU216DAVISVP2,2013-07-08 02:52:00,
2013-07-07 22:57:00,71.5,67.6,30.03,SSW,207,0.0,5.0,87,0.00,,OVC OVC///CB,0.00,WUHU216DAVISVP2,2013-07-08 02:57:00,
2013-07-07 23:02:00,71.3,67.4,30.03,WNW,295,0.0,5.0,87,0.00,,OVC OVC///CB,0.00,WUHU216DAVISVP2,2013-07-08 03:02:00,
2013-07-07 23:07:00,71.2,67.3,30.03,WSW,257,0.0,4.0,87,0.00,,OVC OVC///CB,0.00,WUHU216DAVISVP2,2013-07-08 03:07:00,
2013-07-07 23:12:00,71.1,67.2,30.03,WSW,245,0.0,3.0,87,0.00,,OVC OVC///CB,0.00,WUHU216DAVISVP2,2013-07-08 03:12:00,
2013-07-07 23:17:00,71.1,67.2,30.03,WSW,252,0.0,3.0,87,0.00,,OVC OVC///CB,0.00,WUHU216DAVISVP2,2013-07-08 03:17:00,
2013-07-07 23:22:00,71.0,66.4,30.04,SW,236,0.0,2.0,85,0.00,,OVC OVC///CB,0.00,WUHU216DAVISVP2,2013-07-08 03:22:00,
2013-07-07 23:27:00,70.9,66.3,30.04,SW,224,4.0,4.0,85,0.00,,OVC OVC///CB,0.00,WUHU216DAVISVP2,2013-07-08 03:27:00,
2013-07-07 23:32:00,70.8,66.2,30.04,WSW,253,0.0,5.0,85,0.00,,OVC OVC///CB,0.00,WUHU216DAVISVP2,2013-07-08 03:32:00,
2013-07-07 23:37:00,70.6,66.0,30.04,WSW,242,2.0,5.0,85,0.00,,OVC OVC///CB,0.00,WUHU216DAVISVP2,2013-07-08 03:37:00,
2013-07-07 23:42:00,70.4,65.8,30.04,West,259,0.0,4.0,85,0.00,,OVC OVC///CB,0.00,WUHU216DAVISVP2,2013-07-08 03:42:00,
2013-07-07 23:47:00,70.2,65.3,30.04,SW,235,0.0,3.0,84,0.00,,OVC OVC///CB,0.00,WUHU216DAVISVP2,2013-07-08 03:47:00,
2013-07-07 23:52:00,70.1,64.9,30.04,West,271,0.0,4.0,83,0.00,,OVC OVC///CB,0.00,WUHU216DAVISVP2,2013-07-08 03:52:00,
2013-07-07 23:57:00,70.0,64.4,30.04,West,268,0.0,4.0,82,0.00,,OVC OVC///CB,0.00,WUHU216DAVISVP2,2013-07-08 03:57:00,